STARLINK-1730, 46563

Orbit data source: Space-Track

STARLINK-1730, 46563 is a payload satellite owned by SpaceX/Seattle (US) in LEO that was launched on Tue, 06 Oct 2020 UTC via an FALCON 9 launch vehicle from the Air Force Eastern Test Range (AFETR). Payload-class satellites include a variety of spacecraft equipped with specific instruments for various scientific and technological missions. These include communications satellites like Starlink; space stations such as the ISS; scientific satellites like the Hubble; Earth observation satellites from companies like Planet Labs, Umbra, and HawkEye 360; GPS; miniature CubeSats for education and research; and military/defense satellites.

Loading next visibility...
Identifier
46563, 2020-070AH
Orbit
LEO
Country
Flag of USUS
Related business
Manufacturer
SpaceX/Seattle
Mission
Partially operational Commercial Communications
Bus & Motor
STARLINK, Unknown motor
Mass
260 kg wet, ~248 kg dry
Launch date (UTC)
2020-10-06 (5 years ago)
Launch vehicle
FALCON 9
Launch site
Air Force Eastern Test Range (AFETR)
Object type
Payload
Rocket body
Debris
Shape & HBR
Box + 1 Pan, 10.1 m
Radar Cross Section
13.562 m², Large (>1 m²)

Expand to show TLE details & history
Last TLE update: 10 hours ago

TLE from 10 hours ago
0 STARLINK-1730
1 46563U 20070AH  25342.60861796  .00047878  00000-0  17255-2 0  9998
2 46563  53.0345 190.3030 0006384 104.5845 255.5862 15.28088241286277
Epoch: 2025-12-08T14:36Z
TLE epoch observation values (Epoch: 2025-12-08T14:36:24.591Z)
Latitude
Longitude
-106.40467°
Altitude
483.506 km
Speed
7.624 km/s
True Right ascension
12h 41m 12s
True Declination
0° 00' 00"
Sunlit
Object was in daylight at epoch
Visualization orbit readout
Latitude
Unknown
Longitude
Unknown
Altitude
Unknown
Speed
Unknown
Apparent Right ascension
Unknown
Apparent Declination
Unknown
Sunlit
N/A
Visualization observer readout
Local Sidereal Time
22:59:32
Azimuth
Unknown
Elevation
Unknown
Doppler factor
Unknown
Orbital elements
Apogee altitude
486.184 km
Perigee altitude
477.425 km
Semi-major axis
6,859.941 km
Eccentricity
0.00064
Inclination
53.0345°
RAAN
190.303°
Arg. of periapsis
104.5845°
True anomaly
255.51536°
Mean anomaly
255.5862°
Eccentric anomaly
255.55078°
Mean motion
3.81999 °/min
Orbital period
94.24 mins
BSTAR
0.0017255
Loading maneuver chart data...
Computing Atmospheric mass density...

Documentation

Showing up to 5 results
|